Home   Weather   Utsunomiya   Past weeks

Flag for Japan Past Weather in Utsunomiya, Japan — Yesterday and Last 2 Weeks

Now
52 °F

Cool.


Feels Like: 52 °F
Forecast: 30 / 47 °F
Wind: 2 mph from Southwest

Location: Mito

Current Time: Dec 9, 2016 at 10:56:29 am

Latest Report: Dec 9, 2016 at 10:00 am


Visibility: N/A

Pressure: 29.86 "Hg

Humidity: 57%

Dew Point: 37 °F

Location of UtsunomiyaLocation

Past Weather in Utsunomiya — Graph

°F

Utsunomiya Temperature Yesterday

Maximum temperature yesterday: 55 °F (at 1:00 pm)
Minimum temperature yesterday: 34 °F (at 6:00 am)
Average temperature yesterday: 44 °F

High & Low Weather Summary for the Past Weeks

 TemperatureHumidityPressure
High63 °F (Dec 5, 1:00 pm)98% (Nov 28, 1:00 am)30.54 "Hg (Nov 28, 1:00 am)
Low30 °F (Nov 25, 6:00 am)29% (Dec 2, 2:00 pm)29.70 "Hg (Dec 6, 8:00 am)
Average46 °F73%30.10 "Hg
* Reported Nov 24 8:00 am — Dec 9 8:00 am, Utsunomiya, Weather by CustomWeather, © 2016

Note: Actual official high and low records may vary slightly from our data, if they occured in-between our weather recording intervals... More about our weather records

Advertising

Utsunomiya Weather History for the Previous 24 Hours

Scroll right to see more
 ConditionsComfort  
Time TempWeatherWind HumidityBarometerVisibility
8:00 am
Fri, Dec 9
43 °FQuite cool.3 mph74%29.91 "HgN/A
7:00 am40 °FQuite cool.2 mph79%29.90 "HgN/A
6:00 am41 °FQuite cool.3 mph76%29.93 "HgN/A
4:00 am40 °FChilly.5 mph77%29.97 "HgN/A
3:00 am39 °FOvercast.5 mph79%29.99 "Hg12 mi
2:00 am40 °FChilly.3 mph73%30.02 "HgN/A
1:00 am38 °FChilly.3 mph78%30.04 "HgN/A
12:00 am38 °FChilly.5 mph79%30.06 "HgN/A
11:00 pm
Thu, Dec 8
39 °FChilly.5 mph75%30.10 "HgN/A
10:00 pm40 °FChilly.3 mph73%30.12 "HgN/A
9:00 pm40 °FPassing clouds.3 mph70%30.12 "Hg19 mi
8:00 pm41 °FQuite cool.6 mph68%30.11 "HgN/A
7:00 pm45 °FCool.6 mph54%30.10 "HgN/A
6:00 pm46 °FCool.3 mph53%30.09 "HgN/A
5:00 pm49 °FCool.6 mph42%30.07 "HgN/A
4:00 pm52 °FCool.2 mph35%30.06 "HgN/A
3:00 pm54 °FPassing clouds.5 mph32%30.05 "Hg19 mi
2:00 pm55 °FCool.6 mph29%30.02 "HgN/A
1:00 pm55 °FCool.6 mph31%30.02 "HgN/A
12:00 pm55 °FCool.6 mph31%30.03 "HgN/A
11:00 am54 °FCool.5 mph37%30.04 "HgN/A
Weather by CustomWeather, © 2016

See weather overviewHow to use our weather pages